State University, AR

3:31 AM CST on February 14, 2016 (GMT -0600)
Jonesboro Municipal

Weather History for KJBR - March, 2012

Change the Weather History Date:

Tuesday, March 13, 2012

  Actual Average Record
Temperature  
Mean Temperature 68 °F 49 °F  
Max Temperature 78 °F 59 °F 88 °F (1917)
Min Temperature 57 °F 39 °F 16 °F (1948)
Degree Days  
Heating Degree Days 0 16  
Month to date heating degree days 134 230  
Since 1 July heating degree days 2573 3186  
Cooling Degree Days 3 0  
Month to date cooling degree days 4 0  
Year to date cooling degree days 7 0  
Growing Degree Days 18 (Base 50)    
Moisture  
Dew Point 60 °F    
Average Humidity 76    
Maximum Humidity 97    
Minimum Humidity 54    
Precipitation  
Precipitation 0.00 in 0.15 in 1.68 in (1943)
Month to date precipitation 3.36 1.72  
Year to date precipitation 8.39 8.87  
Snow  
Snow 0.00 in 0.10 in 0.50 in (1951)
Month to date snowfall 0.0 0.4  
Since 1 July snowfall 5.5 4.5  
Snow Depth 0.00 in    
Sea Level Pressure  
Sea Level Pressure 30.10 in    
Wind  
Wind Speed 7 mph (SSW)    
Max Wind Speed 16 mph    
Max Gust Speed 21 mph    
Visibility 9 miles    
Events      
T = Trace of Precipitation, MM = Missing Value Source: NWS Daily Summary

Daily Weather History Graph

Daily Weather History Graph

Search for Another Location

Airport or City:

Trip Planner

Search our weather history database for the weather conditions in past years. The results will help you decide how hot, cold, wet, or windy it might be!

Date:

Astronomy

Mar. 13, 2012 Rise Set
Actual Time 7:15 AM CDT 7:08 PM CDT
Civil Twilight 6:50 AM CDT 7:34 PM CDT
Nautical Twilight 6:20 AM CDT 8:04 PM CDT
Astronomical Twilight 5:50 AM CDT 8:33 PM CDT
Moon 12:28 AM CDT (3/13) 10:41 AM CDT (3/13)
Length of Visible Light 12h 44m
Length of Day
11h 53m
Waning Gibbous, 65% of the Moon is Illuminated
Mar 13
Waning Gibbous
Mar 14
Last Quarter
Mar 22
New
Mar 30
First Quarter
Apr 6
Full

Hourly Weather History & Observations

Time (CDT) Temp. Dew Point Humidity Pressure Visibility Wind Dir Wind Speed Gust Speed Precip Events Conditions
12:53 AM 61.0 °F 57.9 °F 90% 30.06 in 10.0 mi SSW 5.8 mph - N/A   Clear
1:53 AM 60.1 °F 57.9 °F 93% 30.07 in 4.0 mi South 3.5 mph - N/A   Clear
2:53 AM 59.0 °F 57.0 °F 93% 30.08 in 9.0 mi SSW 4.6 mph - N/A   Clear
3:53 AM 61.0 °F 57.0 °F 87% 30.07 in 10.0 mi SW 5.8 mph - N/A   Clear
4:53 AM 59.0 °F 57.9 °F 96% 30.08 in 10.0 mi SW 4.6 mph - N/A   Clear
5:20 AM 59.0 °F 57.2 °F 94% 30.09 in 4.0 mi SW 3.5 mph - N/A   Scattered Clouds
5:29 AM 60.8 °F 59.0 °F 94% 30.09 in 5.0 mi SSW 5.8 mph - N/A   Mostly Cloudy
5:53 AM 63.0 °F 61.0 °F 93% 30.09 in 4.0 mi SW 8.1 mph - 0.01 in   Overcast
6:53 AM 62.1 °F 61.0 °F 96% 30.10 in 4.0 mi SW 6.9 mph - N/A   Overcast
7:53 AM 62.1 °F 61.0 °F 96% 30.12 in 6.0 mi SW 9.2 mph - N/A   Overcast
8:53 AM 63.0 °F 61.0 °F 93% 30.14 in 7.0 mi SSW 8.1 mph - N/A   Overcast
9:10 AM 62.6 °F 60.8 °F 94% 30.15 in 9.0 mi SW 9.2 mph - N/A   Overcast
9:53 AM 64.0 °F 60.1 °F 87% 30.15 in 10.0 mi SSW 6.9 mph - N/A   Overcast
10:38 AM 68.0 °F 60.8 °F 78% 30.16 in 10.0 mi SSW 9.2 mph - N/A   Mostly Cloudy
10:53 AM 66.9 °F 61.0 °F 81% 30.16 in 10.0 mi SW 9.2 mph - N/A   Scattered Clouds
11:53 AM 71.1 °F 62.1 °F 73% 30.15 in 10.0 mi South 11.5 mph - N/A   Partly Cloudy
12:53 PM 73.0 °F 62.1 °F 68% 30.14 in 10.0 mi SW 10.4 mph - N/A   Clear
1:53 PM 75.0 °F 62.1 °F 64% 30.12 in 10.0 mi SW 11.5 mph - N/A   Scattered Clouds
2:53 PM 75.9 °F 61.0 °F 60% 30.10 in 10.0 mi SSW 10.4 mph - N/A   Partly Cloudy
3:53 PM 77.0 °F 61.0 °F 58% 30.08 in 10.0 mi SW 12.7 mph - N/A   Clear
4:53 PM 77.0 °F 59.0 °F 54% 30.08 in 10.0 mi SW 13.8 mph - N/A   Clear
5:53 PM 75.9 °F 60.1 °F 58% 30.07 in 10.0 mi SSW 10.4 mph - N/A   Clear
6:53 PM 73.0 °F 59.0 °F 61% 30.08 in 10.0 mi SSW 6.9 mph - N/A   Clear
7:53 PM 68.0 °F 59.0 °F 73% 30.07 in 10.0 mi SSE 3.5 mph - N/A   Clear
8:53 PM 63.0 °F 59.0 °F 87% 30.09 in 10.0 mi Calm Calm - N/A   Clear
9:53 PM 62.1 °F 57.9 °F 86% 30.10 in 10.0 mi Calm Calm - N/A   Clear
10:53 PM 61.0 °F 59.0 °F 93% 30.11 in 10.0 mi Calm Calm - N/A   Clear
11:53 PM 63.0 °F 59.0 °F 87% 30.11 in 10.0 mi Calm Calm - N/A   Clear